This is the latest recevied weather packets stored in our database for station/object IK1PCD-11. If no packets are shown the sender has not sent any weather packets the latest 10 day(s).
| Time | Temp. | Humidity | Pressure | Rain* | Wind** | Luminosity | Snow |
|---|---|---|---|---|---|---|---|
| 1787752551 | 23.33° C | 100% | 1020.6 hPa | - | - | - | - |
| 1787751651 | 23.33° C | 100% | 1021 hPa | - | - | - | - |
| 1787750751 | 23.89° C | 100% | 1020.9 hPa | - | - | - | - |
| 1787749851 | 23.89° C | 100% | 1020.5 hPa | - | - | - | - |
| 1787748951 | 23.89° C | 100% | 1020.6 hPa | - | - | - | - |
| 1787748051 | 22.78° C | 100% | 1020.7 hPa | - | - | - | - |
| 1787747151 | 23.89° C | 100% | 1020.8 hPa | - | - | - | - |
| 1787746251 | 24.44° C | 100% | 1020.7 hPa | - | - | - | - |
| 1787743550 | 25° C | 100% | 1020.7 hPa | - | - | - | - |
| 1787742650 | 23.33° C | 100% | 1020.5 hPa | - | - | - | - |
| 1787741750 | 23.33° C | 100% | 1020.9 hPa | - | - | - | - |
| 1787740850 | 22.22° C | 100% | 1020.8 hPa | - | - | - | - |
| 1787739950 | 21.67° C | 100% | 1021.2 hPa | - | - | - | - |
| 1787739050 | 20° C | 100% | 1021.9 hPa | - | - | - | - |
| 1787738149 | 19.44° C | 100% | 1022.2 hPa | - | - | - | - |
| 1787737253 | 18.89° C | 100% | 1022.4 hPa | - | - | - | - |
| 1787736353 | 17.78° C | 100% | 1022.4 hPa | - | - | - | - |
| 1787735453 | 17.78° C | 100% | 1022.4 hPa | - | - | - | - |
| 1787734552 | 18.33° C | 100% | 1022 hPa | - | - | - | - |
| 1787733654 | 17.78° C | 100% | 1021.9 hPa | - | - | - | - |
| 1787732752 | 17.22° C | 100% | 1021.7 hPa | - | - | - | - |
| 1787731852 | 16.67° C | 100% | 1021.7 hPa | - | - | - | - |
| 1787729154 | 15.56° C | 100% | 1021.4 hPa | - | - | - | - |
| 1787728252 | 15° C | 100% | 1021.3 hPa | - | - | - | - |
| 1787727352 | 14.44° C | 100% | 1021.3 hPa | - | - | - | - |
* Rain since midnight (hover to see other rain measurements)
** Current wind speed in m/s (hover to see current wind gust speed)